GW3580 Weather Reports


Display with metric or nautical units.
time (UTC)temp
F
wind
direction
speed
MPH
gust
MPH
rain 1hr
in
rain 24hr
in
rain mn
in
humidity
%
barometer
mb
20260503224444 72 23 0.0 0.0 0.00 0.00 0.00 48 1009.2
20260503223941 72 279 1.0 2.0 0.00 0.00 0.00 45 1009.5
20260503223439 74 314 1.0 1.0 0.00 0.00 0.00 45 1009.4
20260503222934 74 24 1.0 1.0 0.00 0.00 0.00 43 1009.3
20260503222433 74 29 0.0 1.0 0.00 0.00 0.00 44 1009.5
20260503221931 73 35 1.0 1.0 0.00 0.00 0.00 44 1009.5
20260503221429 72 286 4.0 5.0 0.00 0.00 0.00 46 1009.8
20260503220925 73 258 1.0 1.0 0.00 0.00 0.00 47 1009.8
20260503220422 72 253 2.0 2.0 0.00 0.00 0.00 47 1009.6
20260503215919 71 260 3.0 4.0 0.00 0.00 0.00 49 1009.9
20260503215416 71 281 1.0 1.0 0.00 0.00 0.00 48 1010.0
20260503214914 71 29 0.0 0.0 0.00 0.00 0.00 48 1009.7
20260503214411 71 254 2.0 2.0 0.00 0.00 0.00 49 1009.9
20260503213908 71 331 0.0 0.0 0.00 0.00 0.00 48 1010.0
20260503213406 71 257 0.0 1.0 0.00 0.00 0.00 49 1009.8
20260503212902 71 250 3.0 4.0 0.00 0.00 0.00 48 1010.0
20260503212400 71 228 3.0 4.0 0.00 0.00 0.00 48 1010.2
20260503211857 71 319 1.0 1.0 0.00 0.00 0.00 48 1010.1
20260503211354 71 9 0.0 0.0 0.00 0.00 0.00 47 1010.1
20260503210848 73 276 3.0 4.0 0.00 0.00 0.00 45 1010.2
20260503210347 71 257 2.0 2.0 0.00 0.00 0.00 48 1010.1
20260503205841 69 255 1.0 1.0 0.00 0.00 0.00 50 1010.2
20260503205339 70 242 2.0 2.0 0.00 0.00 0.00 49 1010.2
20260503204835 69 233 4.0 5.0 0.00 0.00 0.00 51 1010.3
20260503204332 69 271 2.0 2.0 0.00 0.00 0.00 51 1010.3
20260503203829 71 353 1.0 1.0 0.00 0.00 0.00 48 1010.2
20260503203327 70 257 0.0 1.0 0.00 0.00 0.00 49 1010.3
20260503202824 71 269 4.0 5.0 0.00 0.00 0.00 48 1010.6
20260503202322 71 27 1.0 2.0 0.00 0.00 0.00 47 1010.5
20260503201820 71 15 1.0 1.0 0.00 0.00 0.00 47 1010.3
20260503201316 69 47 1.0 1.0 0.00 0.00 0.00 48 1010.6
20260503200814 68 258 3.0 4.0 0.00 0.00 0.00 50 1010.8
20260503200309 70 253 4.0 5.0 0.00 0.00 0.00 49 1010.6
20260503195807 71 33 3.0 4.0 0.00 0.00 0.00 48 1010.8
20260503195304 71 245 3.0 4.0 0.00 0.00 0.00 46 1010.9
20260503194801 68 301 3.0 4.0 0.00 0.00 0.00 50 1011.1
20260503194256 68 271 2.0 2.0 0.00 0.00 0.00 51 1011.3
20260503193753 70 244 2.0 2.0 0.00 0.00 0.00 48 1011.1
20260503193249 69 317 0.0 1.0 0.00 0.00 0.00 49 1011.1
20260503192745 70 267 3.0 5.0 0.00 0.00 0.00 48 1011.2
20260503192240 70 285 3.0 4.0 0.00 0.00 0.00 48 1011.1
20260503191737 70 232 4.0 5.0 0.00 0.00 0.00 48 1011.5
20260503191234 70 16 3.0 4.0 0.00 0.00 0.00 48 1011.2
20260503190731 70 238 2.0 2.0 0.00 0.00 0.00 49 1011.5
20260503190228 69 40 2.0 4.0 0.00 0.00 0.00 49 1011.5
20260503185725 69 13 2.0 4.0 0.00 0.00 0.00 48 1011.5
20260503185220 69 2 2.0 2.0 0.00 0.00 0.00 48 1011.6
20260503184715 69 9 2.0 2.0 0.00 0.00 0.00 49 1011.4
20260503184212 68 269 3.0 5.0 0.00 0.00 0.00 51 1011.5
20260503183708 68 322 0.0 0.0 0.00 0.00 0.00 50 1011.7
20260503183206 68 2 1.0 1.0 0.00 0.00 0.00 49 1011.6
20260503182704 68 253 3.0 4.0 0.00 0.00 0.00 50 1011.6
20260503182202 68 222 0.0 0.0 0.00 0.00 0.00 53 1011.6
20260503181658 69 136 1.0 1.0 0.00 0.00 0.00 50 1011.8
20260503181155 68 298 0.0 1.0 0.00 0.00 0.00 52 1011.8
20260503180652 68 259 3.0 4.0 0.00 0.00 0.00 52 1011.8
20260503180150 67 253 3.0 5.0 0.00 0.00 0.00 53 1011.7
20260503175647 67 243 0.0 0.0 0.00 0.00 0.00 52 1011.7
20260503175144 66 271 1.0 1.0 0.00 0.00 0.00 53 1011.7
20260503174640 66 277 4.0 5.0 0.00 0.00 0.00 53 1011.5
20260503174138 66 276 3.0 4.0 0.00 0.00 0.00 55 1011.6
20260503173632 65 236 3.0 4.0 0.00 0.00 0.00 55 1011.4
20260503173129 66 247 5.0 5.0 0.00 0.00 0.00 55 1011.8
20260503172626 66 27 2.0 2.0 0.00 0.00 0.00 55 1011.5
20260503172124 65 228 3.0 4.0 0.00 0.00 0.00 55 1011.4
20260503171620 64 259 3.0 5.0 0.00 0.00 0.00 57 1011.7
20260503171117 65 251 3.0 4.0 0.00 0.00 0.00 56 1011.5
20260503170615 65 243 1.0 2.0 0.00 0.00 0.00 57 1011.5
20260503170111 64 270 2.0 4.0 0.00 0.00 0.00 60 1011.4
20260503151006 58 24 2.0 2.0 0.00 0.00 0.00 72 1011.0
20260503150503 57 19 1.0 1.0 0.00 0.00 0.00 74 1010.9
20260503131355 54 273 1.0 1.0 0.00 0.00 0.00 81 1009.1
20260503130853 54 269 0.0 0.0 0.00 0.00 0.00 81 1009.0
20260503130350 54 252 0.0 0.0 0.00 0.00 0.00 81 1008.8
20260503110744 56 305 1.0 2.0 0.00 0.00 0.00 78 1008.3
20260503110241 56 270 2.0 2.0 0.00 0.00 0.00 78 1008.5
20260503100208 57 322 0.0 1.0 0.00 0.00 0.00 76 1008.1
20260503090132 59 25 3.0 5.0 0.00 0.00 0.00 74 1008.1
20260503081602 60 255 2.0 2.0 0.00 0.00 0.00 72 1008.5
20260503081059 60 239 2.0 2.0 0.00 0.00 0.00 71 1008.5
20260503080554 61 238 3.0 5.0 0.00 0.00 0.00 70 1008.5
20260503072529 62 258 1.0 1.0 0.00 0.00 0.00 70 1008.4
20260503072026 62 276 2.0 4.0 0.00 0.00 0.00 70 1008.5
20260503071523 63 233 1.0 2.0 0.00 0.00 0.00 70 1008.3
20260503071019 63 242 3.0 4.0 0.00 0.00 0.00 70 1008.4
20260503070516 63 270 1.0 1.0 0.00 0.00 0.00 70 1008.3
20260503054940 66 210 2.0 2.0 0.00 0.00 0.00 67 1008.2
20260503054436 66 258 2.0 4.0 0.00 0.00 0.00 67 1008.2
20260503053934 66 260 5.0 6.0 0.00 0.00 0.00 66 1008.3
20260503053431 66 282 3.0 4.0 0.00 0.00 0.00 66 1008.3
20260503052927 67 248 3.0 5.0 0.00 0.00 0.00 66 1008.2
20260503052425 67 244 2.0 2.0 0.00 0.00 0.00 65 1008.4
20260503051921 67 323 1.0 2.0 0.00 0.00 0.00 65 1008.2
20260503051417 67 240 4.0 5.0 0.00 0.00 0.00 65 1008.3
20260503050915 68 224 2.0 2.0 0.00 0.00 0.00 65 1008.0
20260503050410 68 298 2.0 2.0 0.00 0.00 0.00 63 1008.2
20260503045908 68 257 1.0 2.0 0.00 0.00 0.00 63 1008.1
20260503045406 68 244 2.0 2.0 0.00 0.00 0.00 63 1008.1
20260503044902 68 246 2.0 2.0 0.00 0.00 0.00 63 1008.3
20260503044359 69 262 2.0 2.0 0.00 0.00 0.00 62 1008.1
20260503043856 69 290 2.0 2.0 0.00 0.00 0.00 62 1007.9
20260503043353 69 243 1.0 1.0 0.00 0.00 0.00 62 1007.8
20260503042849 69 207 2.0 2.0 0.00 0.00 0.00 60 1007.9
20260503042346 70 235 1.0 1.0 0.00 0.00 0.00 60 1007.6
20260503041842 70 253 0.0 1.0 0.00 0.00 0.00 59 1007.6
20260503041340 70 117 0.0 1.0 0.00 0.00 0.00 58 1007.7
20260503040837 71 257 1.0 2.0 0.00 0.00 0.00 58 1007.6
20260503040335 71 242 3.0 6.0 0.00 0.00 0.00 57 1007.6
20260503035831 71 27 2.0 2.0 0.00 0.00 0.00 57 1007.4
20260503035328 71 295 1.0 1.0 0.00 0.00 0.00 57 1007.4
20260503034825 72 219 1.0 1.0 0.00 0.00 0.00 57 1007.0
20260503034323 72 244 2.0 2.0 0.00 0.00 0.00 58 1007.0
20260503033820 72 229 1.0 2.0 0.00 0.00 0.00 57 1007.2
20260503033317 73 207 1.0 1.0 0.00 0.00 0.00 56 1007.0
20260503032815 73 253 1.0 2.0 0.00 0.00 0.00 56 1007.2
20260503032314 73 247 1.0 1.0 0.00 0.00 0.00 56 1006.9
20260503031811 74 252 1.0 1.0 0.00 0.00 0.00 55 1007.0
20260503031309 74 106 1.0 1.0 0.00 0.00 0.00 54 1006.8
20260503030805 74 243 2.0 4.0 0.00 0.00 0.00 53 1006.8
20260503030301 75 254 2.0 4.0 0.00 0.00 0.00 53 1006.6
20260503025758 75 243 2.0 4.0 0.00 0.00 0.00 53 1006.6
20260503025256 75 241 2.0 4.0 0.00 0.00 0.00 52 1006.7
20260503024752 76 249 1.0 1.0 0.00 0.00 0.00 52 1006.5
20260503024249 76 260 5.0 7.0 0.00 0.00 0.00 52 1006.6
20260503023746 77 268 2.0 4.0 0.00 0.00 0.00 51 1006.6
20260503023243 77 277 2.0 2.0 0.00 0.00 0.00 50 1006.4
20260503022739 78 220 2.0 2.0 0.00 0.00 0.00 50 1006.5
20260503022234 78 252 2.0 2.0 0.00 0.00 0.00 48 1006.6
20260503021731 79 238 3.0 4.0 0.00 0.00 0.00 46 1006.4
20260503021227 80 263 4.0 5.0 0.00 0.00 0.00 44 1006.5
20260503020725 80 265 2.0 2.0 0.00 0.00 0.00 43 1006.3
20260503020222 80 276 2.0 2.0 0.00 0.00 0.00 44 1006.5
20260503015719 80 260 3.0 4.0 0.00 0.00 0.00 46 1006.4
20260503015216 81 261 2.0 2.0 0.00 0.00 0.00 45 1006.3
20260503014711 81 270 4.0 6.0 0.00 0.00 0.00 43 1006.4
20260503014210 81 248 3.0 4.0 0.00 0.00 0.00 42 1006.4
20260503013706 81 295 3.0 4.0 0.00 0.00 0.00 42 1006.5
20260503013204 82 252 4.0 6.0 0.00 0.00 0.00 41 1006.5
20260503012702 82 279 3.0 4.0 0.00 0.00 0.00 39 1006.4
20260503012158 83 293 2.0 4.0 0.00 0.00 0.00 37 1006.3
20260503011654 83 245 4.0 5.0 0.00 0.00 0.00 36 1006.3
20260503011152 83 245 3.0 4.0 0.00 0.00 0.00 35 1006.1
20260503010648 84 244 3.0 4.0 0.00 0.00 0.00 34 1006.1
20260503010145 84 229 4.0 5.0 0.00 0.00 0.00 35 1006.4
20260503005642 84 257 1.0 2.0 0.00 0.00 0.00 36 1006.3
20260503005139 84 268 1.0 1.0 0.00 0.00 0.00 37 1006.3
20260503004635 84 238 2.0 2.0 0.00 0.00 0.00 35 1006.4
20260503004134 84 236 2.0 2.0 0.00 0.00 0.00 36 1006.2
20260503003631 85 259 1.0 2.0 0.00 0.00 0.00 37 1006.3
20260503003128 85 255 2.0 2.0 0.00 0.00 0.00 33 1006.3
20260503002625 84 259 2.0 2.0 0.00 0.00 0.00 34 1006.3
20260503002121 84 252 3.0 4.0 0.00 0.00 0.00 34 1006.5
20260503001617 87 307 3.0 4.0 0.00 0.00 0.00 34 1006.4
20260503001115 86 269 0.0 0.0 0.00 0.00 0.00 30 1006.4
20260503000612 86 50 1.0 1.0 0.00 0.00 0.00 29 1006.3
20260503000109 85 23 3.0 4.0 0.00 0.00 0.00 29 1006.5
20260502235606 86 28 0.0 1.0 0.00 0.00 0.00 28 1006.6
20260502235104 87 14 0.0 0.0 0.00 0.00 0.00 27 1006.6
20260502234559 87 286 1.0 2.0 0.00 0.00 0.00 26 1006.5
20260502234057 87 38 0.0 1.0 0.00 0.00 0.00 23 1006.6
20260502233557 87 33 1.0 1.0 0.00 0.00 0.00 22 1006.7
20260502233055 87 135 1.0 1.0 0.00 0.00 0.00 22 1006.8
20260502232551 87 224 4.0 5.0 0.00 0.00 0.00 21 1007.1
20260502232048 87 244 2.0 4.0 0.00 0.00 0.00 22 1006.8
20260502231545 88 269 0.0 1.0 0.00 0.00 0.00 21 1007.1
20260502231043 89 23 0.0 1.0 0.00 0.00 0.00 21 1006.9
20260502230541 89 278 1.0 2.0 0.00 0.00 0.00 22 1007.0
20260502230039 88 355 1.0 1.0 0.00 0.00 0.00 23 1007.2
20260502225534 88 3 3.0 5.0 0.00 0.00 0.00 23 1007.4
20260502225032 88 253 3.0 4.0 0.00 0.00 0.00 23 1007.3